www.pogodaiklimat.ru

Погода и климат >> Архив погоды >> Россия >> Адыгея >> Гузерипль


ПОГОДА в Гузерипле

  • Прогноз погоды в Гузерипле
  • Монитор погоды в Гузерипле

АРХИВ ПОГОДЫ в Гузерипле

Время (UTC), дата Ветер
(напр.,м/с)
 
Видим.   Явления Облачность Т
(С)
Тd
(С)
f
(%)
Тe
(С)
Тes
(С)
Комфортность P
(гПа)
Po
(гПа)
Тmin
(С)
Tmax
(С)
R
(мм)
R24
(мм)
S
(см)
03 19.08 штиль 0 20 км 10/10 600 м
[Sc diur, vesp]
+17.8 +17.7 99 +18 +18 1015.1 938.2 +17.7 0.3
06 19.08 В 1 20 км 3/3 1000 м
[Sc diur, vesp]
+22.8 +17.7 73 +28 +35 душно 1014.1 938.6
09 19.08 В 1 20 км 4/3 1500 м
[Sc Ci]
+27.2 +18.6 59 +32 +45 очень
душно
1012.3 938.0
12 19.08 В 1 20 км 6/6 1000 м
[Sc]
+27.3 +19.1 61 +33 +37 очень
душно
1012.3 938.0
15 19.08 штиль 0 20 км 10/10 1000 м
[Sc diur, vesp]
+23.6 +20.5 83 +29 +29 душно 1013.7 938.6 +28.2
18 19.08 штиль 0 20 км 3/3 1500 м
[Sc]
+20.0 +19.8 99 +23 +23 комфорт 1016.5 940.2
21 19.08 штиль 0 20 км 10/10 1000 м
[Sc]
+18.5 +18.5 100 +19 +19 1017.1 940.3
00 20.08 штиль 0 20 км 10/10 1000 м
[Sc diur, vesp]
+18.3 +18.2 99 +19 +19 1017.0 940.2
03 20.08 штиль 0 20 км 10/10 1000 м
[Sc diur, vesp]
+18.2 +18.1 99 +19 +19 1017.6 940.7 +18.2
06 20.08 В 1 20 км 6/3 1000 м
[Sc diur, vesp Ci]
+23.2 +18.3 74 +29 +35 душно 1016.2 940.6
09 20.08 ЮЗ 1 20 км 3/3 1000 м
[Sc]
+26.8 +19.2 63 +32 +45 очень
душно
1014.0 939.5
12 20.08 З 1 20 км 10/10 1000 м
[Cb cap]
+26.1 +20.0 69 +32 +32 очень
душно
1013.9 939.2
15 20.08 штиль 0 20 км 10/10 1000 м
[Cb cap]
+23.7 +20.5 82 +29 +29 душно 1014.5 939.3 +29.9
18 20.08 С 1 10 км гроза, ливневой дождь 10/10 1000 м
[Cb cap]
+21.2 +20.8 98 +27 +27 душно 1017.8 941.7
21 20.08 штиль 0 20 км {гроза, ливн. осадки} 10/10 1000 м
[Cb cap]
+18.7 +18.6 99 +20 +20 1017.2 940.5
00 21.08 штиль 0 10 км слаб. ливневой дождь {гроза} 10/10 1000 м
[Cb cap]
+17.4 +17.3 99 +17 +17 1017.0 940.0
03 21.08 штиль 0 20 км {ливн. осадки} 10/10 1000 м
[Cb cap]
+17.1 +17.1 100 +17 +17 1016.6 939.5 +16.9 2
06 21.08 В 1 20 км {ливн. осадки} 10/10 1000 м
[Cb cap]
+20.3 +18.5 89 +25 +25 комфорт 1015.0 938.8
09 21.08 В 1 20 км 5/0
[Ac cast]
+29.2 +19.7 57 +35 +47 очень
душно
1010.1 936.5
12 21.08 З 1 20 км 8/8 1000 м
[Sc]
+27.3 +20.9 68 +34 +37 очень
душно
1009.3 935.3
15 21.08 штиль 0 20 км 10/3 1000 м
[Sc Ac cast Ci]
+24.9 +21.8 83 +32 +32 очень
душно
1009.8 935.3 +30.9
18 21.08 штиль 0 20 км ясно +19.6 +19.1 97 +22 +22 комфорт 1011.0 935.0
21 21.08 З 1 20 км 10/10 1000 м
[Sc]
+18.1 +17.7 98 +19 +19 1013.3 936.7
00 22.08 штиль 0 20 км гроза без осадков 3/3 1500 м
[Sc]
+16.7 +16.7 100 +17 +17 1013.5 936.5
03 22.08 ЮЗ 1 20 км {гроза} 6/6 1500 м
[Cb calv]
+16.0 +16.0 100 +17 +17 1012.9 935.7 +15.8
06 22.08 С 1 20 км 10/10 1000 м
[Cb cap]
+18.5 +17.6 94 +20 +20 1012.2 935.8
09 22.08 СЗ 1 20 км {ливн. осадки} 10/10 1000 м
[Cb cap]
+22.8 +19.1 80 +29 +29 очень
душно
1010.4 935.2
12 22.08 штиль 0 20 км {ливн. осадки} 10/10 1000 м
[Cb cap]
+25.8 +19.2 67 +31 +31 очень
душно
1010.0 935.6
15 22.08 штиль 0 20 км 10/3 1000 м
[Sc Ci]
+22.3 +19.1 82 +28 +29 душно 1010.8 935.5 +27.1 0.3
18 22.08 штиль 0 20 км ясно +18.8 +18.6 99 +20 +20 1013.0 936.6
21 22.08 штиль 0 20 км ясно +17.4 +17.4 100 +17 +17 1013.6 936.8
00 23.08 штиль 0 20 км ясно +16.9 +16.8 99 +17 +17 1014.2 937.2
03 23.08 штиль 0 20 км 1/0
[Cs]
+16.4 +16.4 100 +16 +16 1014.6 937.4 +16.4
06 23.08 В 1 20 км гроза без осадков 10/10 1000 м
[Cb cap]
+20.3 +16.7 80 +24 +24 комфорт 1014.0 937.8 +16.4
09 23.08 Ю 1 20 км {гроза} 8/0
[Ac cast Cs]
+27.0 +16.6 53 +31 +42 душно 1010.8 936.5
12 23.08 З 1 20 км {гроза} 8/3 1500 м
[Cu hum Cs]
+28.6 +14.8 43 +31 +38 жарко 1010.9 936.9
15 23.08 ЮЗ 1 20 км 5/0
[Ac cast]
+21.6 +16.9 75 +26 +26 душно 1013.3 937.5 +29.6
18 23.08 штиль 0 20 км ясно +17.2 +16.2 94 +17 +17 1015.9 938.8
21 23.08 ЮЗ 1 20 км ясно +15.0 +14.8 99 +15 +15 1016.2 938.5
00 24.08 штиль 0 20 км ясно +14.6 +14.5 99 +14 +14 1016.6 938.8
03 24.08 штиль 0 20 км 8/8 1500 м
[Sc]
+15.0 +14.8 99 +15 +15 1016.9 939.2 +14.4
06 24.08 штиль 0 20 км 9/9 1500 м
[Sc]
+19.2 +16.2 83 +21 +22 комфорт 1015.6 939.0
09 24.08 штиль 0 20 км в посл. час ливневой дождь 10/10 1000 м
[Cb cap]
+22.3 +17.6 75 +27 +27 душно 1013.9 938.3
12 24.08 ЮЗ 1 20 км {ливн. осадки} 9/9 1000 м
[Cb cap]
+25.9 +18.1 62 +30 +31 душно 1012.7 938.0
15 24.08 СВ 1 20 км гроза без осадков 10/10 1000 м
[Cb cap]
+23.8 +11.5 46 +25 +25 комфорт 1015.5 939.9 +27.3 0.0
18 24.08 З 1 20 км {гроза} 10/10 1000 м
[Cb cap]
+18.0 +15.7 86 +19 +19 1017.4 940.4
21 24.08 З 1 20 км ясно +15.5 +15.4 99 +16 +16 1018.1 940.3
00 25.08 З 1 20 км 6/6 1500 м
[Sc]
+14.7 +14.6 99 +15 +15 1017.8 939.9
03 25.08 штиль 0 20 км 10/4 1000 м
[Sc Ci]
+14.0 +14.0 100 +13 +13 1017.9 939.8 +14.0
06 25.08 В 1 20 км 8/3 1500 м
[Sc Ci]
+21.3 +15.0 67 +24 +29 комфорт 1016.0 939.9
09 25.08 В 1 20 км 3/3 1500 м
[Cu hum]
+28.7 +14.0 41 +31 +43 жарко 1012.4 938.3
12 25.08 СВ 1 20 км 4/3 1000 м
[Cu med, cong Ac cast]
+28.3 +15.7 46 +31 +38 душно 1012.9 938.7
15 25.08 штиль 0 20 км 6/6 1000 м
[Sc diur, vesp]
+24.4 +17.6 66 +28 +29 душно 1014.4 939.2 +29.2
18 25.08 штиль 0 20 км {ливн. осадки} 3/3 1000 м
[Sc diur, vesp]
+18.7 +18.5 99 +20 +20 1017.8 941.0
21 25.08 штиль 0 20 км ясно +16.4 +16.4 100 +16 +16 1018.9 941.4
00 26.08 штиль 0 4000 м дымка ясно +15.6 +15.4 99 +15 +15 1019.2 941.4

 

Местоположение метеостанции Гузерипль (Адыгея, Россия): широта 44.00 долгота 40.13 высота над уровнем моря 677 м.

В архиве по умолчанию представлена погода в Гузерипле за последнюю неделю. Архивные данные за месяц целиком и за предыдущие месяцы, начиная с января 2011 года, Вы можете получить, выбрав интересующий диапазон дат из раскрывающегося списка и нажав кнопку "Ввод!".


*Определитесь, кто Вы:
робот инопланетянин человек

Внимание! Время в таблицах - всемирное. Для получения местного времени необходимо прибавить поправку, которая равна 3 ч.

Смотрите также архив погоды в соседних городах и на ближайших метеорологических станциях:

Погода в Красной Поляне (Краснодарский край, Россия) (36 км)
Погода на Кордоне Лаура (Краснодарский край, Россия) (36 км)
Погода в Горная Карусель 1500 (Краснодарский край, Россия) (41 км)
Погода в Горная Карусель 1000 (Краснодарский край, Россия) (41 км)
Погода в Кепше (Краснодарский край, Россия) (43 км)
Погода в Солох Ауле (Краснодарский край, Россия) (46 км)
Погода в Шунтуке (Адыгея, Россия) (52 км)
Погода в Кичмае (Краснодарский край, Россия) (53 км)
Погода в Псебае (Краснодарский край, Россия) (54 км)
Погода в Сочи (Краснодарский край, Россия) (55 км)

Пояснения к столбцам:

Ветер - указаны скорость ветра в м/с - средняя за 10 мин, порывы в срок и между сроками (в фигурных скобках) и направление, откуда дует ветер: С - северный, СВ - северо-восточный, В - восточный, ЮВ - юго-восточный, Ю - южный, ЮЗ - юго-западный, З - западный, СЗ - северо-западный.
Видимость - горизонтальная дальность видимости в метрах или километрах. При видимости от 1 до 10 км при отсутствии осадков обычно наблюдается дымка, при ухудшении видимости до 1 км и менее - туман. В сухую погоду видимость может ухудшаться дымом, пылью или мглою.
Явления - указаны атмосферные явления, наблюдавшиеся в срок или в последний час перед сроком; фигурными скобками обозначены явления, наблюдавшиеся между сроками (за 1-3 часа до срока); квадратными скобками обозначены град или гололедные отложения с указанием их диаметра в мм.
Облачность - указаны через наклонную черту общая и нижняя облачность в баллах и высота нижней границы облаков в метрах; квадратными скобками обозначены формы облаков: Ci - перистые, Cs - перисто-слоистые, Cc - перисто-кучевые, Ac - высококучевые, As - высокослоистые, Sc - слоисто-кучевые, Ns - слоисто-дождевые, Cu - кучевые, Cb - кучево-дождевые. Подробнее классификацию облаков см. в Атласе облаков (PDF).
T - Температура воздуха - температура, измеренная на высоте 2 м над землей.
Td - Температура точки росы - температура, при понижении до которой содержащийся в воздухе водяной пар достигнет насыщения.
f - Относительная влажность воздуха - влажноcть воздуха, измеренная на высоте 2 м над землей.
Te - Эффективная температура - температура, которую ощущает одетый по сезону человек в тени. Характеристика душности погоды. При расчете учитывается влияние влажности воздуха и скорости ветра на теплоощущения человека.
Tes - Эффективная температура на солнце - температура, которую ощущает человек, с поправкой на солнечный нагрев. Характеристика знойности погоды. Зависит от высоты солнца над горизонтом, облачности и скорости ветра. Ночью, в пасмурную погоду, а также при ветре 12 м/с и более поправка равна нулю.
P - Атмосферное давление - приведенное к уровню моря атмосферное давление.
Po - Атмосферное давление - измеренное на уровне метеостанции атмосферное давление.
Tmin - Минимальная температура - минимум температуры воздуха на высоте 2 м над землей.
Tmax - Максимальная температура - максимум температуры воздуха на высоте 2 м над землей.
R - Количество осадков - Количество выпавших осадков за период времени, мм. При наведении курсора мыши на число - период времени, за который выпало указанное количество осадков.
R24 - Количество осадков - Количество выпавших осадков за 24 часа, мм.
S - Снежный покров - Высота снежного покрова, см. При наведении курсора мыши на число - состояние снежного покрова и степень покрытия местности в баллах.